Home > Weather > Nürtingen > Past weeks

Flag for Germany Past Weather in Nürtingen, Baden-Württemberg, Germany — Yesterday and Last 2 Weeks

Now
52 °F

Broken clouds.


Feels Like: 49 °F
Forecast: 37 / 69 °F
Wind: 7 mph from Northwest

Location: Stuttgart-Echterdingen

Current Time: May 24, 2016 at 5:46:35 PM

Latest Report: May 24, 2016 at 5:20 PM


Visibility: N/A

Pressure: 29.98 "Hg

Humidity: 88%

Dew Point: 48 °F

Location of NürtingenLocation

Past Weather in Nürtingen — Graph

°F

Nürtingen Temperature Yesterday

Maximum temperature yesterday: 57 °F (at 12:20 AM)
Minimum temperature yesterday: 50 °F (at 8:20 PM)
Average temperature yesterday: 53 °F

High & Low Weather Summary for the Past Weeks

 TemperatureHumidityPressure
High81 °F (May 22, 3:50 PM)100% (May 11, 2:20 AM)30.15 "Hg (May 11, 2:20 AM)
Low41 °F (May 15, 6:50 AM)34% (May 9, 4:50 PM)29.45 "Hg (May 12, 5:20 PM)
Average55 °F75%29.88 "Hg
* Reported May 9 4:20 PM — May 24 4:20 PM, Nürtingen, Weather by CustomWeather, © 2016

Note: Actual official high and low records may vary slightly from our data, if they occured in-between our weather recording intervals... More about our weather records

Advertising

Nürtingen Weather History for the Previous 24 Hours

Scroll right to see more
 ConditionsComfort  
Time TempWeatherWind HumidityBarometerVisibility
4:20 PM
Tue, May 24
52 °FLight rain. Broken clouds.10 mph88%29.98 "HgN/A
3:50 PM52 °FLight rain. Broken clouds.7 mph88%29.98 "HgN/A
3:20 PM52 °FLight rain. Broken clouds.8 mph88%29.98 "HgN/A
2:50 PM52 °FLight rain. Broken clouds.8 mph88%29.98 "HgN/A
2:20 PM52 °FLight rain. Broken clouds.10 mph88%29.98 "HgN/A
1:50 PM52 °FLight rain. Broken clouds.8 mph88%29.98 "HgN/A
1:20 PM50 °FLight rain. Broken clouds.7 mph94%29.98 "HgN/A
12:50 PM50 °FLight rain. Broken clouds.8 mph94%29.98 "HgN/A
12:20 PM50 °FLight rain. Broken clouds.10 mph94%29.98 "HgN/A
11:50 AM50 °FLight rain. Broken clouds.9 mph94%29.98 "HgN/A
11:20 AM50 °FRain. Broken clouds.10 mph94%29.98 "HgN/A
10:50 AM50 °FRain. Broken clouds.12 mph94%29.98 "HgN/A
10:20 AM50 °FRain. Broken clouds.10 mph94%29.98 "HgN/A
9:50 AM50 °FLight rain. Broken clouds.10 mph94%29.95 "HgN/A
9:20 AM50 °FLight rain. Broken clouds.9 mph94%29.95 "Hg5 mi
8:50 AM50 °FLight rain. Broken clouds.7 mph94%29.98 "HgN/A
8:20 AM50 °FLight rain. Broken clouds.9 mph94%29.95 "Hg6 mi
7:50 AM50 °FLight rain. Broken clouds.10 mph94%29.95 "Hg4 mi
7:20 AM50 °FLight rain. Broken clouds.8 mph94%29.95 "Hg4 mi
6:50 AM50 °FBroken clouds.9 mph94%29.95 "HgN/A
6:20 AM50 °FPassing clouds.5 mph88%29.95 "HgN/A
5:50 AM50 °FPassing clouds.6 mph88%29.95 "HgN/A
5:20 AM50 °FPartly cloudy.8 mph88%29.95 "HgN/A
4:50 AM50 °FPartly cloudy.9 mph88%29.95 "HgN/A
4:20 AM50 °FPartly cloudy.12 mph88%29.95 "HgN/A
3:50 AM50 °FPassing clouds.10 mph88%29.95 "HgN/A
3:20 AM50 °FPassing clouds.13 mph88%29.95 "HgN/A
2:50 AM50 °FPartly cloudy.10 mph94%29.92 "HgN/A
2:20 AM50 °FPassing clouds.12 mph94%29.95 "HgN/A
1:50 AM52 °FPassing clouds.12 mph88%29.95 "HgN/A
1:20 AM52 °FLight rain. Passing clouds.10 mph88%29.95 "HgN/A
12:50 AM52 °FPartly cloudy.12 mph88%29.95 "HgN/A
12:20 AM52 °FPartly cloudy.8 mph88%29.95 "HgN/A
11:50 PM
Mon, May 23
52 °FPassing clouds.9 mph88%29.95 "HgN/A
11:20 PM50 °FLight rain. Passing clouds.8 mph94%29.95 "HgN/A
10:50 PM50 °FLight rain. Partly cloudy.8 mph94%29.95 "HgN/A
10:20 PM50 °FLight rain. Passing clouds.9 mph94%29.92 "HgN/A
9:50 PM50 °FLight rain. Partly sunny.6 mph94%29.95 "Hg5 mi
9:20 PM50 °FLight rain. Broken clouds.3 mph94%29.95 "HgN/A
8:50 PM50 °FLight rain. Broken clouds.5 mph94%29.95 "HgN/A
8:20 PM50 °FLight rain. Broken clouds.6 mph94%29.92 "HgN/A
7:50 PM52 °FLight rain. Broken clouds.7 mph88%29.92 "HgN/A
7:20 PM52 °FLight rain. Broken clouds.8 mph88%29.92 "HgN/A
6:50 PM52 °FLight rain. Broken clouds.6 mph94%29.92 "HgN/A
6:20 PM52 °FRain. Broken clouds.6 mph88%29.92 "HgN/A
5:50 PM52 °FLight rain. Broken clouds.7 mph88%29.92 "HgN/A
5:20 PM52 °FLight rain. Broken clouds.6 mph88%29.92 "HgN/A
Weather by CustomWeather, © 2016

See weather overviewHow to use our weather pages